Time,TemperatureF,DewpointF,PressureIn,WindDirection,WindDirectionDegrees,WindSpeedMPH,WindSpeedGustMPH,Humidity,HourlyPrecipIn,Conditions,Clouds,dailyrainin,SoftwareType,DateUTC
2013-03-26 00:00:00,37.0,29.5,29.72,SE,140,1.0,2.0,74,0.00,,,0.00,Weather View 32 v70,2013-03-26 04:00:00,
2013-03-26 00:05:00,37.0,29.8,29.72,WSW,255,0.0,2.0,75,0.00,,,0.00,Weather View 32 v70,2013-03-26 04:05:00,
2013-03-26 00:10:00,36.8,29.9,29.78,WSW,244,1.0,2.0,76,0.00,,,0.00,Weather View 32 v70,2013-03-26 04:10:00,
2013-03-26 00:15:00,36.8,30.3,29.78,West,277,1.0,2.0,77,0.00,,,0.00,Weather View 32 v70,2013-03-26 04:15:00,
2013-03-26 00:20:00,36.6,30.1,29.72,WSW,245,0.0,2.0,77,0.00,,,0.00,Weather View 32 v70,2013-03-26 04:20:00,
2013-03-26 00:25:00,36.8,30.6,29.72,WSW,253,1.0,2.0,78,0.00,,,0.00,Weather View 32 v70,2013-03-26 04:25:00,
2013-03-26 00:30:00,36.6,30.4,29.72,NNW,328,1.0,2.0,78,0.00,,,0.00,Weather View 32 v70,2013-03-26 04:30:00,
2013-03-26 00:35:00,36.6,30.4,29.78,NW,304,0.0,2.0,78,0.00,,,0.00,Weather View 32 v70,2013-03-26 04:35:00,
2013-03-26 00:40:00,36.3,29.5,29.78,SW,223,1.0,2.0,76,0.00,,,0.00,Weather View 32 v70,2013-03-26 04:40:00,
2013-03-26 00:45:00,36.6,30.4,29.72,WSW,249,1.0,2.0,78,0.00,,,0.00,Weather View 32 v70,2013-03-26 04:45:00,
2013-03-26 00:50:00,36.5,30.3,29.79,NNE,33,1.0,2.0,78,0.00,,,0.00,Weather View 32 v70,2013-03-26 04:50:00,
2013-03-26 00:55:00,36.3,29.8,29.78,NNW,343,0.0,2.0,77,0.00,,,0.00,Weather View 32 v70,2013-03-26 04:55:00,
2013-03-26 01:00:00,36.5,30.0,29.78,NNW,341,1.0,2.0,77,0.00,,,0.00,Weather View 32 v70,2013-03-26 05:00:00,
2013-03-26 01:06:00,36.5,30.6,29.79,West,278,0.0,2.0,79,0.00,,,0.00,Weather View 32 v70,2013-03-26 05:06:00,
2013-03-26 01:11:00,36.5,30.6,29.79,North,359,0.0,2.0,79,0.00,,,0.00,Weather View 32 v70,2013-03-26 05:11:00,
2013-03-26 01:15:00,36.5,30.6,29.78,WSW,254,1.0,2.0,79,0.00,,,0.00,Weather View 32 v70,2013-03-26 05:15:00,
2013-03-26 01:21:00,36.5,30.3,29.78,NW,314,0.0,2.0,78,0.00,,,0.00,Weather View 32 v70,2013-03-26 05:21:00,
2013-03-26 01:26:00,36.6,30.4,29.78,NNW,334,0.0,2.0,78,0.00,,,0.00,Weather View 32 v70,2013-03-26 05:26:00,
2013-03-26 01:31:00,36.6,30.1,29.79,WNW,300,2.0,3.0,77,0.00,,,0.00,Weather View 32 v70,2013-03-26 05:31:00,
2013-03-26 01:36:00,36.6,30.1,29.78,West,262,1.0,3.0,77,0.00,,,0.00,Weather View 32 v70,2013-03-26 05:36:00,
2013-03-26 01:41:00,37.0,30.1,29.78,WNW,285,1.0,3.0,76,0.00,,,0.00,Weather View 32 v70,2013-03-26 05:41:00,
2013-03-26 01:46:00,37.0,30.1,29.79,SE,134,0.0,3.0,76,0.00,,,0.00,Weather View 32 v70,2013-03-26 05:46:00,
2013-03-26 01:51:00,36.8,29.9,29.79,SSW,208,0.0,3.0,76,0.00,,,0.00,Weather View 32 v70,2013-03-26 05:51:00,
2013-03-26 01:56:00,37.2,30.0,29.79,West,260,1.0,3.0,75,0.00,,,0.00,Weather View 32 v70,2013-03-26 05:56:00,
2013-03-26 02:01:00,37.4,30.2,29.78,WNW,283,2.0,3.0,75,0.00,,,0.00,Weather View 32 v70,2013-03-26 06:01:00,
2013-03-26 02:06:00,37.4,29.9,29.79,SW,214,1.0,3.0,74,0.00,,,0.00,Weather View 32 v70,2013-03-26 06:06:00,
2013-03-26 02:11:00,37.5,30.0,29.79,West,281,0.0,3.0,74,0.00,,,0.00,Weather View 32 v70,2013-03-26 06:11:00,
2013-03-26 02:16:00,37.4,29.9,29.79,West,279,0.0,3.0,74,0.00,,,0.00,Weather View 32 v70,2013-03-26 06:16:00,
2013-03-26 02:21:00,37.7,30.2,29.79,NW,306,1.0,3.0,74,0.00,,,0.00,Weather View 32 v70,2013-03-26 06:21:00,
2013-03-26 02:26:00,37.7,30.2,29.79,SSW,206,0.0,3.0,74,0.00,,,0.00,Weather View 32 v70,2013-03-26 06:26:00,
2013-03-26 02:31:00,37.7,30.2,29.79,West,259,1.0,3.0,74,0.00,,,0.00,Weather View 32 v70,2013-03-26 06:31:00,
2013-03-26 02:36:00,37.7,30.2,29.79,North,350,1.0,3.0,74,0.00,,,0.00,Weather View 32 v70,2013-03-26 06:36:00,
2013-03-26 02:41:00,37.7,30.2,29.78,NW,315,0.0,3.0,74,0.00,,,0.00,Weather View 32 v70,2013-03-26 06:41:00,
2013-03-26 02:46:00,37.2,30.0,29.78,WNW,282,0.0,3.0,75,0.00,,,0.00,Weather View 32 v70,2013-03-26 06:46:00,
2013-03-26 02:51:00,37.2,30.0,29.78,SSW,197,0.0,3.0,75,0.00,,,0.00,Weather View 32 v70,2013-03-26 06:51:00,
2013-03-26 02:56:00,37.2,30.3,29.78,North,8,1.0,3.0,76,0.00,,,0.00,Weather View 32 v70,2013-03-26 06:56:00,
2013-03-26 03:01:00,37.0,30.5,29.78,WSW,239,1.0,3.0,77,0.00,,,0.00,Weather View 32 v70,2013-03-26 07:01:00,
2013-03-26 03:06:00,36.8,30.6,29.78,NW,325,1.0,3.0,78,0.00,,,0.00,Weather View 32 v70,2013-03-26 07:06:00,
2013-03-26 03:11:00,36.8,30.6,29.79,WSW,255,1.0,3.0,78,0.00,,,0.00,Weather View 32 v70,2013-03-26 07:11:00,
2013-03-26 03:16:00,36.8,30.6,29.79,WNW,297,0.0,3.0,78,0.00,,,0.00,Weather View 32 v70,2013-03-26 07:16:00,
2013-03-26 03:21:00,36.8,30.9,29.79,WSW,253,0.0,3.0,79,0.00,,,0.00,Weather View 32 v70,2013-03-26 07:21:00,
2013-03-26 03:26:00,36.6,31.3,29.79,NW,326,1.0,3.0,81,0.00,,,0.00,Weather View 32 v70,2013-03-26 07:26:00,
2013-03-26 03:31:00,36.6,31.0,29.79,NE,47,0.0,2.0,80,0.00,,,0.00,Weather View 32 v70,2013-03-26 07:31:00,
2013-03-26 03:36:00,36.6,31.3,29.79,ENE,69,0.0,2.0,81,0.00,,,0.00,Weather View 32 v70,2013-03-26 07:36:00,
2013-03-26 03:41:00,36.6,31.0,29.80,West,275,1.0,2.0,80,0.00,,,0.00,Weather View 32 v70,2013-03-26 07:41:00,
2013-03-26 03:46:00,36.6,30.7,29.79,NW,322,1.0,2.0,79,0.00,,,0.00,Weather View 32 v70,2013-03-26 07:46:00,
2013-03-26 03:51:00,36.6,30.7,29.79,WSW,250,2.0,2.0,79,0.00,,,0.00,Weather View 32 v70,2013-03-26 07:51:00,
2013-03-26 03:56:00,36.8,31.2,29.79,WSW,250,2.0,2.0,80,0.00,,,0.00,Weather View 32 v70,2013-03-26 07:56:00,
2013-03-26 04:01:00,36.6,30.7,29.79,NW,321,0.0,2.0,79,0.00,,,0.00,Weather View 32 v70,2013-03-26 08:01:00,
2013-03-26 04:06:00,36.8,31.5,29.79,NW,310,1.0,2.0,81,0.00,,,0.00,Weather View 32 v70,2013-03-26 08:06:00,
2013-03-26 04:11:00,36.6,31.3,29.80,NW,323,1.0,2.0,81,0.00,,,0.00,Weather View 32 v70,2013-03-26 08:11:00,
2013-03-26 04:16:00,36.6,31.3,29.79,WNW,298,0.0,2.0,81,0.00,,,0.00,Weather View 32 v70,2013-03-26 08:16:00,
2013-03-26 04:21:00,36.8,31.2,29.80,West,260,0.0,2.0,80,0.00,,,0.00,Weather View 32 v70,2013-03-26 08:21:00,
2013-03-26 04:26:00,36.8,30.9,29.80,WSW,251,1.0,2.0,79,0.00,,,0.00,Weather View 32 v70,2013-03-26 08:26:00,
2013-03-26 04:31:00,36.6,30.7,29.80,South,188,1.0,2.0,79,0.00,,,0.00,Weather View 32 v70,2013-03-26 08:31:00,
2013-03-26 04:36:00,37.0,31.1,29.80,WSW,241,1.0,2.0,79,0.00,,,0.00,Weather View 32 v70,2013-03-26 08:36:00,
2013-03-26 04:41:00,36.8,30.9,29.80,WSW,255,2.0,2.0,79,0.00,,,0.00,Weather View 32 v70,2013-03-26 08:41:00,
2013-03-26 04:46:00,36.8,30.6,29.80,WSW,252,1.0,2.0,78,0.00,,,0.00,Weather View 32 v70,2013-03-26 08:46:00,
2013-03-26 04:51:00,36.8,30.9,29.79,West,278,0.0,2.0,79,0.00,,,0.00,Weather View 32 v70,2013-03-26 08:51:00,
2013-03-26 04:56:00,36.8,30.9,29.80,WSW,237,1.0,2.0,79,0.00,,,0.00,Weather View 32 v70,2013-03-26 08:56:00,
2013-03-26 05:01:00,36.8,31.5,29.80,NNW,345,1.0,2.0,81,0.00,,,0.00,Weather View 32 v70,2013-03-26 09:01:00,
2013-03-26 05:06:00,36.5,31.2,29.80,SSW,208,1.0,2.0,81,0.00,,,0.00,Weather View 32 v70,2013-03-26 09:06:00,
2013-03-26 05:11:00,36.6,31.6,29.80,NNE,21,0.0,2.0,82,0.00,,,0.00,Weather View 32 v70,2013-03-26 09:11:00,
2013-03-26 05:16:00,36.6,31.6,29.80,SE,127,1.0,2.0,82,0.00,,,0.00,Weather View 32 v70,2013-03-26 09:16:00,
2013-03-26 05:21:00,36.5,31.5,29.80,NNE,22,1.0,2.0,82,0.00,,,0.00,Weather View 32 v70,2013-03-26 09:21:00,
2013-03-26 05:26:00,36.1,30.5,29.81,ENE,60,1.0,2.0,80,0.00,,,0.00,Weather View 32 v70,2013-03-26 09:26:00,
2013-03-26 05:31:00,36.5,31.5,29.80,NE,47,1.0,2.0,82,0.00,,,0.00,Weather View 32 v70,2013-03-26 09:31:00,
2013-03-26 05:36:00,36.5,31.5,29.81,SE,133,0.0,2.0,82,0.00,,,0.00,Weather View 32 v70,2013-03-26 09:36:00,
2013-03-26 05:41:00,36.6,31.3,29.81,South,175,2.0,2.0,81,0.00,,,0.00,Weather View 32 v70,2013-03-26 09:41:00,
2013-03-26 05:46:00,36.8,31.5,29.81,SSW,196,1.0,2.0,81,0.00,,,0.00,Weather View 32 v70,2013-03-26 09:46:00,
2013-03-26 05:51:00,36.8,31.5,29.81,SSW,192,2.0,2.0,81,0.00,,,0.00,Weather View 32 v70,2013-03-26 09:51:00,
2013-03-26 05:56:00,36.6,31.3,29.80,WSW,242,1.0,2.0,81,0.00,,,0.00,Weather View 32 v70,2013-03-26 09:56:00,
2013-03-26 06:01:00,36.6,31.6,29.80,NNE,12,2.0,2.0,82,0.00,,,0.00,Weather View 32 v70,2013-03-26 10:01:00,
2013-03-26 06:06:00,36.3,30.7,29.82,NE,44,2.0,3.0,80,0.00,,,0.00,Weather View 32 v70,2013-03-26 10:06:00,
2013-03-26 06:12:00,36.3,31.0,29.82,East,79,1.0,3.0,81,0.00,,,0.00,Weather View 32 v70,2013-03-26 10:12:00,
2013-03-26 06:17:00,36.3,31.0,29.83,SSE,154,0.0,3.0,81,0.00,,,0.00,Weather View 32 v70,2013-03-26 10:17:00,
2013-03-26 06:22:00,36.5,31.8,29.83,ENE,70,1.0,3.0,83,0.00,,,0.00,Weather View 32 v70,2013-03-26 10:22:00,
2013-03-26 06:27:00,36.5,31.2,29.83,SSE,166,0.0,3.0,81,0.00,,,0.00,Weather View 32 v70,2013-03-26 10:27:00,
2013-03-26 06:32:00,36.8,30.9,29.83,NE,41,3.0,4.0,79,0.00,,,0.00,Weather View 32 v70,2013-03-26 10:32:00,
2013-03-26 06:37:00,37.0,29.8,29.84,NE,38,4.0,5.0,75,0.00,,,0.00,Weather View 32 v70,2013-03-26 10:37:00,
2013-03-26 06:42:00,37.5,30.0,29.84,NNW,331,2.0,9.0,74,0.00,,,0.00,Weather View 32 v70,2013-03-26 10:42:00,
2013-03-26 06:47:00,37.4,29.9,29.85,North,11,1.0,9.0,74,0.00,,,0.00,Weather View 32 v70,2013-03-26 10:47:00,
2013-03-26 06:52:00,37.4,29.9,29.85,East,79,2.0,9.0,74,0.00,,,0.00,Weather View 32 v70,2013-03-26 10:52:00,
2013-03-26 06:57:00,37.2,30.0,29.85,ENE,66,1.0,9.0,75,0.00,,,0.00,Weather View 32 v70,2013-03-26 10:57:00,
2013-03-26 07:02:00,37.0,29.8,29.85,North,359,2.0,9.0,75,0.00,,,0.00,Weather View 32 v70,2013-03-26 11:02:00,
2013-03-26 07:07:00,37.2,30.0,29.85,NNE,19,1.0,9.0,75,0.00,,,0.00,Weather View 32 v70,2013-03-26 11:07:00,
2013-03-26 07:12:00,37.2,30.0,29.85,NW,317,0.0,9.0,75,0.00,,,0.00,Weather View 32 v70,2013-03-26 11:12:00,
2013-03-26 07:17:00,37.2,30.0,29.86,NNW,346,1.0,9.0,75,0.00,,,0.00,Weather View 32 v70,2013-03-26 11:17:00,
2013-03-26 07:22:00,37.2,30.0,29.86,ENE,69,1.0,9.0,75,0.00,,,0.00,Weather View 32 v70,2013-03-26 11:22:00,
2013-03-26 07:27:00,37.0,29.8,29.86,ENE,75,0.0,9.0,75,0.00,,,0.00,Weather View 32 v70,2013-03-26 11:27:00,
2013-03-26 07:32:00,37.2,30.0,29.86,North,349,2.0,9.0,75,0.00,,,0.00,Weather View 32 v70,2013-03-26 11:32:00,
2013-03-26 07:37:00,37.2,30.0,29.86,NE,54,0.0,9.0,75,0.00,,,0.00,Weather View 32 v70,2013-03-26 11:37:00,
2013-03-26 07:42:00,37.0,29.8,29.86,NE,44,0.0,4.0,75,0.00,,,0.00,Weather View 32 v70,2013-03-26 11:42:00,
2013-03-26 07:47:00,37.2,30.0,29.86,NNE,12,1.0,4.0,75,0.00,,,0.00,Weather View 32 v70,2013-03-26 11:47:00,
2013-03-26 07:52:00,37.2,30.3,29.87,West,280,1.0,4.0,76,0.00,,,0.00,Weather View 32 v70,2013-03-26 11:52:00,
2013-03-26 07:57:00,37.0,30.1,29.87,WNW,300,0.0,4.0,76,0.00,,,0.00,Weather View 32 v70,2013-03-26 11:57:00,
2013-03-26 08:02:00,37.2,30.3,29.87,West,270,0.0,4.0,76,0.00,,,0.00,Weather View 32 v70,2013-03-26 12:02:00,
2013-03-26 08:07:00,37.2,30.6,29.88,NNW,345,0.0,4.0,77,0.00,,,0.00,Weather View 32 v70,2013-03-26 12:07:00,
2013-03-26 08:12:00,37.2,31.0,29.88,WNW,293,0.0,4.0,78,0.00,,,0.00,Weather View 32 v70,2013-03-26 12:12:00,
2013-03-26 08:17:00,37.2,31.0,29.88,West,270,1.0,4.0,78,0.00,,,0.00,Weather View 32 v70,2013-03-26 12:17:00,
2013-03-26 08:22:00,37.4,31.2,29.88,WSW,251,1.0,3.0,78,0.00,,,0.00,Weather View 32 v70,2013-03-26 12:22:00,
2013-03-26 08:27:00,37.4,30.2,29.88,North,356,3.0,3.0,75,0.00,,,0.00,Weather View 32 v70,2013-03-26 12:27:00,
2013-03-26 08:32:00,37.5,30.0,29.89,NW,323,4.0,4.0,74,0.00,,,0.00,Weather View 32 v70,2013-03-26 12:32:00,
2013-03-26 08:37:00,37.7,29.8,29.88,NW,322,1.0,4.0,73,0.00,,,0.00,Weather View 32 v70,2013-03-26 12:37:00,
2013-03-26 08:42:00,37.7,29.8,29.88,ENE,63,1.0,4.0,73,0.00,,,0.00,Weather View 32 v70,2013-03-26 12:42:00,
2013-03-26 08:47:00,37.9,29.7,29.88,NNE,26,3.0,4.0,72,0.00,,,0.00,Weather View 32 v70,2013-03-26 12:47:00,
2013-03-26 08:52:00,38.3,30.4,29.89,NW,307,3.0,4.0,73,0.00,,,0.00,Weather View 32 v70,2013-03-26 12:52:00,
2013-03-26 08:57:00,37.9,30.0,29.88,North,357,2.0,4.0,73,0.00,,,0.00,Weather View 32 v70,2013-03-26 12:57:00,
2013-03-26 09:02:00,37.9,30.0,29.88,NW,308,2.0,4.0,73,0.00,,,0.00,Weather View 32 v70,2013-03-26 13:02:00,
2013-03-26 09:07:00,37.9,29.7,29.88,North,359,1.0,4.0,72,0.00,,,0.00,Weather View 32 v70,2013-03-26 13:07:00,
2013-03-26 09:12:00,38.3,30.1,29.88,WNW,294,3.0,4.0,72,0.00,,,0.00,Weather View 32 v70,2013-03-26 13:12:00,
2013-03-26 09:17:00,38.4,30.2,29.89,WSW,241,1.0,4.0,72,0.00,,,0.00,Weather View 32 v70,2013-03-26 13:17:00,
2013-03-26 09:23:00,38.8,30.2,29.88,NNW,331,1.0,4.0,71,0.00,,,0.00,Weather View 32 v70,2013-03-26 13:23:00,
2013-03-26 09:28:00,39.0,30.4,29.88,WNW,297,2.0,4.0,71,0.00,,,0.00,Weather View 32 v70,2013-03-26 13:28:00,
2013-03-26 09:33:00,39.3,30.7,29.88,NW,309,1.0,5.0,71,0.00,,,0.00,Weather View 32 v70,2013-03-26 13:33:00,
2013-03-26 09:38:00,39.2,30.6,29.88,NNW,340,3.0,5.0,71,0.00,,,0.00,Weather View 32 v70,2013-03-26 13:38:00,
2013-03-26 09:43:00,39.0,30.4,29.88,NNW,342,3.0,5.0,71,0.00,,,0.00,Weather View 32 v70,2013-03-26 13:43:00,
2013-03-26 09:48:00,39.3,30.3,29.88,NNW,334,3.0,6.0,70,0.00,,,0.00,Weather View 32 v70,2013-03-26 13:48:00,
2013-03-26 09:53:00,39.9,31.3,29.88,WNW,294,1.0,6.0,71,0.00,,,0.00,Weather View 32 v70,2013-03-26 13:53:00,
2013-03-26 09:58:00,41.5,32.4,29.88,WSW,254,1.0,6.0,70,0.00,,,0.00,Weather View 32 v70,2013-03-26 13:58:00,
2013-03-26 10:03:00,42.0,32.9,29.88,NW,323,3.0,7.0,70,0.00,,,0.00,Weather View 32 v70,2013-03-26 14:03:00,
2013-03-26 10:08:00,42.6,33.1,29.87,NNW,330,3.0,7.0,69,0.00,,,0.00,Weather View 32 v70,2013-03-26 14:08:00,
2013-03-26 10:13:00,42.4,32.9,29.87,East,84,1.0,7.0,69,0.00,,,0.00,Weather View 32 v70,2013-03-26 14:13:00,
2013-03-26 10:18:00,42.6,33.1,29.86,North,11,3.0,7.0,69,0.00,,,0.00,Weather View 32 v70,2013-03-26 14:18:00,
2013-03-26 10:23:00,42.4,32.9,29.87,WSW,239,1.0,7.0,69,0.00,,,0.00,Weather View 32 v70,2013-03-26 14:23:00,
2013-03-26 10:28:00,42.8,33.3,29.86,WSW,240,1.0,7.0,69,0.00,,,0.00,Weather View 32 v70,2013-03-26 14:28:00,
2013-03-26 10:33:00,43.1,33.6,29.87,NNE,15,5.0,7.0,69,0.00,,,0.00,Weather View 32 v70,2013-03-26 14:33:00,
2013-03-26 10:38:00,42.8,33.3,29.87,NNW,341,3.0,7.0,69,0.00,,,0.00,Weather View 32 v70,2013-03-26 14:38:00,
2013-03-26 10:43:00,43.1,34.0,29.86,ESE,106,3.0,7.0,70,0.00,,,0.00,Weather View 32 v70,2013-03-26 14:43:00,
2013-03-26 10:48:00,43.7,34.5,29.86,West,279,1.0,7.0,70,0.00,,,0.00,Weather View 32 v70,2013-03-26 14:48:00,
2013-03-26 10:55:00,44.0,34.5,29.86,NE,46,5.0,7.0,69,0.00,,,0.00,Weather View 32 v70,2013-03-26 14:55:00,
2013-03-26 11:00:00,43.5,34.4,29.87,North,360,2.0,7.0,70,0.00,,,0.00,Weather View 32 v70,2013-03-26 15:00:00,
2013-03-26 11:05:00,43.1,34.0,29.87,NE,46,3.0,7.0,70,0.00,,,0.00,Weather View 32 v70,2013-03-26 15:05:00,
2013-03-26 11:10:00,43.3,34.2,29.87,NNE,15,3.0,7.0,70,0.00,,,0.00,Weather View 32 v70,2013-03-26 15:10:00,
2013-03-26 11:15:00,42.9,33.4,29.87,North,359,1.0,7.0,69,0.00,,,0.00,Weather View 32 v70,2013-03-26 15:15:00,
2013-03-26 11:20:00,42.6,33.1,29.88,North,360,3.0,7.0,69,0.00,,,0.00,Weather View 32 v70,2013-03-26 15:20:00,
2013-03-26 11:25:00,42.6,33.5,29.88,NE,53,3.0,7.0,70,0.00,,,0.00,Weather View 32 v70,2013-03-26 15:25:00,
2013-03-26 11:30:00,42.6,33.5,29.88,NE,51,3.0,7.0,70,0.00,,,0.00,Weather View 32 v70,2013-03-26 15:30:00,
2013-03-26 11:35:00,42.8,33.7,29.89,NNW,331,4.0,7.0,70,0.00,,,0.00,Weather View 32 v70,2013-03-26 15:35:00,
2013-03-26 11:40:00,42.8,33.7,29.89,NW,323,4.0,7.0,70,0.00,,,0.00,Weather View 32 v70,2013-03-26 15:40:00,
2013-03-26 11:45:00,43.1,34.0,29.89,NNE,31,1.0,7.0,70,0.00,,,0.00,Weather View 32 v70,2013-03-26 15:45:00,
2013-03-26 11:50:00,44.0,34.8,29.88,North,359,4.0,7.0,70,0.00,,,0.00,Weather View 32 v70,2013-03-26 15:50:00,
2013-03-26 11:55:00,44.2,35.0,29.89,NW,306,1.0,7.0,70,0.00,,,0.00,Weather View 32 v70,2013-03-26 15:55:00,
2013-03-26 12:00:00,44.0,34.5,29.88,NNE,31,2.0,7.0,69,0.00,,,0.00,Weather View 32 v70,2013-03-26 16:00:00,
2013-03-26 12:05:00,44.0,34.8,29.88,North,356,2.0,7.0,70,0.00,,,0.00,Weather View 32 v70,2013-03-26 16:05:00,
2013-03-26 12:10:00,45.1,35.5,29.88,NNE,22,2.0,8.0,69,0.00,,,0.00,Weather View 32 v70,2013-03-26 16:10:00,
2013-03-26 12:15:00,46.4,37.5,29.87,West,267,2.0,10.0,71,0.00,,,0.00,Weather View 32 v70,2013-03-26 16:15:00,
2013-03-26 12:20:00,47.4,38.1,29.86,NNE,16,7.0,10.0,70,0.00,,,0.00,Weather View 32 v70,2013-03-26 16:20:00,
2013-03-26 12:25:00,47.3,38.0,29.86,East,81,1.0,14.0,70,0.00,,,0.00,Weather View 32 v70,2013-03-26 16:25:00,
2013-03-26 12:30:00,47.6,38.3,29.86,NW,324,5.0,14.0,70,0.00,,,0.00,Weather View 32 v70,2013-03-26 16:30:00,
2013-03-26 12:35:00,46.7,37.4,29.86,North,360,6.0,14.0,70,0.00,,,0.00,Weather View 32 v70,2013-03-26 16:35:00,
2013-03-26 12:40:00,46.2,36.9,29.86,North,351,4.0,14.0,70,0.00,,,0.00,Weather View 32 v70,2013-03-26 16:40:00,
2013-03-26 12:45:00,45.8,36.9,29.86,NNW,338,4.0,14.0,71,0.00,,,0.00,Weather View 32 v70,2013-03-26 16:45:00,
2013-03-26 12:50:00,46.2,36.9,29.86,North,11,5.0,14.0,70,0.00,,,0.00,Weather View 32 v70,2013-03-26 16:50:00,
2013-03-26 12:55:00,46.0,37.1,29.86,NNE,30,3.0,14.0,71,0.00,,,0.00,Weather View 32 v70,2013-03-26 16:55:00,
2013-03-26 13:00:00,45.8,36.9,29.86,ENE,61,3.0,14.0,71,0.00,,,0.00,Weather View 32 v70,2013-03-26 17:00:00,
2013-03-26 13:05:00,46.5,37.6,29.86,NW,304,2.0,14.0,71,0.00,,,0.00,Weather View 32 v70,2013-03-26 17:05:00,
2013-03-26 13:10:00,46.5,37.2,29.86,North,6,2.0,14.0,70,0.00,,,0.00,Weather View 32 v70,2013-03-26 17:10:00,
2013-03-26 13:15:00,46.9,37.6,29.86,NW,317,2.0,14.0,70,0.00,,,0.00,Weather View 32 v70,2013-03-26 17:15:00,
2013-03-26 13:20:00,46.9,38.0,29.86,South,173,2.0,14.0,71,0.00,,,0.00,Weather View 32 v70,2013-03-26 17:20:00,
2013-03-26 13:25:00,47.4,38.1,29.86,NW,306,5.0,12.0,70,0.00,,,0.00,Weather View 32 v70,2013-03-26 17:25:00,
2013-03-26 13:30:00,46.9,37.6,29.86,NW,310,2.0,12.0,70,0.00,,,0.00,Weather View 32 v70,2013-03-26 17:30:00,
2013-03-26 13:35:00,46.7,37.8,29.86,North,351,4.0,11.0,71,0.00,,,0.00,Weather View 32 v70,2013-03-26 17:35:00,
2013-03-26 13:40:00,47.1,38.2,29.86,North,2,5.0,11.0,71,0.00,,,0.00,Weather View 32 v70,2013-03-26 17:40:00,
2013-03-26 13:45:00,47.3,38.4,29.86,NW,305,4.0,11.0,71,0.00,,,0.00,Weather View 32 v70,2013-03-26 17:45:00,
2013-03-26 13:50:00,46.5,37.2,29.86,North,4,6.0,15.0,70,0.00,,,0.00,Weather View 32 v70,2013-03-26 17:50:00,
2013-03-26 13:55:00,47.1,38.2,29.86,WNW,291,4.0,15.0,71,0.00,,,0.00,Weather View 32 v70,2013-03-26 17:55:00,
2013-03-26 14:00:00,46.5,37.6,29.86,ENE,60,4.0,15.0,71,0.00,,,0.00,Weather View 32 v70,2013-03-26 18:00:00,
2013-03-26 14:05:00,46.7,37.8,29.85,North,7,5.0,15.0,71,0.00,,,0.00,Weather View 32 v70,2013-03-26 18:05:00,
2013-03-26 14:10:00,47.4,38.5,29.86,NNW,342,3.0,15.0,71,0.00,,,0.00,Weather View 32 v70,2013-03-26 18:10:00,
2013-03-26 14:15:00,46.7,37.8,29.86,North,1,6.0,15.0,71,0.00,,,0.00,Weather View 32 v70,2013-03-26 18:15:00,
2013-03-26 14:20:00,46.4,37.5,29.86,North,358,5.0,15.0,71,0.00,,,0.00,Weather View 32 v70,2013-03-26 18:20:00,
2013-03-26 14:25:00,46.4,37.5,29.86,ENE,77,1.0,15.0,71,0.00,,,0.00,Weather View 32 v70,2013-03-26 18:25:00,
2013-03-26 14:30:00,46.7,37.8,29.87,NW,317,5.0,15.0,71,0.00,,,0.00,Weather View 32 v70,2013-03-26 18:30:00,
2013-03-26 14:35:00,46.5,37.6,29.86,ENE,57,1.0,15.0,71,0.00,,,0.00,Weather View 32 v70,2013-03-26 18:35:00,
2013-03-26 14:40:00,46.5,37.6,29.87,NNW,336,7.0,15.0,71,0.00,,,0.00,Weather View 32 v70,2013-03-26 18:40:00,
2013-03-26 14:45:00,46.5,37.6,29.87,NE,45,2.0,15.0,71,0.00,,,0.00,Weather View 32 v70,2013-03-26 18:45:00,
2013-03-26 14:50:00,46.4,37.5,29.87,ENE,57,3.0,12.0,71,0.00,,,0.00,Weather View 32 v70,2013-03-26 18:50:00,
2013-03-26 14:55:00,46.7,37.8,29.87,NNW,339,3.0,12.0,71,0.00,,,0.00,Weather View 32 v70,2013-03-26 18:55:00,
2013-03-26 15:00:00,46.7,37.4,29.87,NNE,28,2.0,10.0,70,0.00,,,0.00,Weather View 32 v70,2013-03-26 19:00:00,
2013-03-26 15:05:00,46.5,37.2,29.87,North,11,1.0,10.0,70,0.00,,,0.00,Weather View 32 v70,2013-03-26 19:05:00,
2013-03-26 15:10:00,46.4,37.1,29.88,NW,315,5.0,10.0,70,0.00,,,0.00,Weather View 32 v70,2013-03-26 19:10:00,
2013-03-26 15:15:00,46.2,36.9,29.87,NW,307,1.0,10.0,70,0.00,,,0.00,Weather View 32 v70,2013-03-26 19:15:00,
2013-03-26 15:20:00,45.8,36.6,29.88,NNW,339,5.0,13.0,70,0.00,,,0.00,Weather View 32 v70,2013-03-26 19:20:00,
2013-03-26 15:25:00,46.0,37.1,29.88,NNW,330,3.0,13.0,71,0.00,,,0.00,Weather View 32 v70,2013-03-26 19:25:00,
2013-03-26 15:30:00,45.8,36.6,29.88,NNW,338,3.0,13.0,70,0.00,,,0.00,Weather View 32 v70,2013-03-26 19:30:00,
2013-03-26 15:35:00,45.8,36.9,29.88,North,10,2.0,13.0,71,0.00,,,0.00,Weather View 32 v70,2013-03-26 19:35:00,
2013-03-26 15:40:00,45.8,36.9,29.87,WNW,287,3.0,13.0,71,0.00,,,0.00,Weather View 32 v70,2013-03-26 19:40:00,
2013-03-26 15:45:00,46.9,38.0,29.87,West,274,4.0,13.0,71,0.00,,,0.00,Weather View 32 v70,2013-03-26 19:45:00,
2013-03-26 15:50:00,48.5,39.5,29.87,ENE,78,1.0,13.0,71,0.00,,,0.00,Weather View 32 v70,2013-03-26 19:50:00,
2013-03-26 15:55:00,49.2,40.2,29.86,NNW,328,3.0,13.0,71,0.00,,,0.00,Weather View 32 v70,2013-03-26 19:55:00,
2013-03-26 16:00:00,48.7,39.7,29.86,North,350,1.0,13.0,71,0.00,,,0.00,Weather View 32 v70,2013-03-26 20:00:00,
2013-03-26 16:05:00,48.7,39.3,29.87,SW,235,4.0,13.0,70,0.00,,,0.00,Weather View 32 v70,2013-03-26 20:05:00,
2013-03-26 16:10:00,49.1,40.1,29.86,North,352,4.0,13.0,71,0.00,,,0.00,Weather View 32 v70,2013-03-26 20:10:00,
2013-03-26 16:15:00,48.7,39.3,29.86,NW,319,3.0,13.0,70,0.00,,,0.00,Weather View 32 v70,2013-03-26 20:15:00,
2013-03-26 16:20:00,47.6,38.3,29.86,WNW,288,4.0,10.0,70,0.00,,,0.00,Weather View 32 v70,2013-03-26 20:20:00,
2013-03-26 16:25:00,47.6,38.3,29.86,West,265,4.0,10.0,70,0.00,,,0.00,Weather View 32 v70,2013-03-26 20:25:00,
2013-03-26 16:30:00,47.3,38.0,29.87,WSW,249,2.0,10.0,70,0.00,,,0.00,Weather View 32 v70,2013-03-26 20:30:00,
2013-03-26 16:35:00,47.8,38.5,29.86,SSW,197,3.0,10.0,70,0.00,,,0.00,Weather View 32 v70,2013-03-26 20:35:00,
2013-03-26 16:40:00,48.3,39.0,29.87,WSW,255,2.0,10.0,70,0.00,,,0.00,Weather View 32 v70,2013-03-26 20:40:00,
2013-03-26 16:45:00,48.9,39.9,29.87,NNW,328,2.0,10.0,71,0.00,,,0.00,Weather View 32 v70,2013-03-26 20:45:00,
2013-03-26 16:50:00,48.9,39.9,29.86,West,280,0.0,10.0,71,0.00,,,0.00,Weather View 32 v70,2013-03-26 20:50:00,
2013-03-26 16:55:00,49.1,40.1,29.86,North,5,3.0,9.0,71,0.00,,,0.00,Weather View 32 v70,2013-03-26 20:55:00,
2013-03-26 17:00:00,48.9,39.9,29.86,South,174,1.0,9.0,71,0.00,,,0.00,Weather View 32 v70,2013-03-26 21:00:00,
2013-03-26 17:05:00,49.4,40.4,29.86,NNE,26,1.0,9.0,71,0.00,,,0.00,Weather View 32 v70,2013-03-26 21:05:00,
2013-03-26 17:10:00,48.7,39.7,29.86,NNE,15,3.0,9.0,71,0.00,,,0.00,Weather View 32 v70,2013-03-26 21:10:00,
2013-03-26 17:15:00,48.0,39.0,29.86,NNE,26,2.0,9.0,71,0.00,,,0.00,Weather View 32 v70,2013-03-26 21:15:00,
2013-03-26 17:20:00,47.8,38.8,29.86,NE,53,5.0,9.0,71,0.00,,,0.00,Weather View 32 v70,2013-03-26 21:20:00,
2013-03-26 17:25:00,47.1,38.2,29.87,NNE,29,3.0,8.0,71,0.00,,,0.00,Weather View 32 v70,2013-03-26 21:25:00,
2013-03-26 17:30:00,46.9,38.0,29.87,ENE,67,5.0,8.0,71,0.00,,,0.00,Weather View 32 v70,2013-03-26 21:30:00,
2013-03-26 17:35:00,47.1,38.2,29.88,NE,50,2.0,8.0,71,0.00,,,0.00,Weather View 32 v70,2013-03-26 21:35:00,
2013-03-26 17:40:00,47.1,38.2,29.88,North,351,2.0,8.0,71,0.00,,,0.00,Weather View 32 v70,2013-03-26 21:40:00,
2013-03-26 17:45:00,46.9,38.0,29.88,ESE,111,2.0,8.0,71,0.00,,,0.00,Weather View 32 v70,2013-03-26 21:45:00,
2013-03-26 17:50:00,46.7,37.4,29.89,ENE,68,1.0,8.0,70,0.00,,,0.00,Weather View 32 v70,2013-03-26 21:50:00,
2013-03-26 17:55:00,46.4,37.5,29.89,ENE,75,2.0,8.0,71,0.00,,,0.00,Weather View 32 v70,2013-03-26 21:55:00,
2013-03-26 18:00:00,46.7,37.8,29.89,East,79,3.0,8.0,71,0.00,,,0.00,Weather View 32 v70,2013-03-26 22:00:00,
2013-03-26 18:05:00,46.4,37.1,29.90,North,5,2.0,8.0,70,0.00,,,0.00,Weather View 32 v70,2013-03-26 22:05:00,
2013-03-26 18:10:00,46.4,37.5,29.90,NE,42,0.0,8.0,71,0.00,,,0.00,Weather View 32 v70,2013-03-26 22:10:00,
2013-03-26 18:15:00,46.2,37.3,29.90,NE,34,2.0,7.0,71,0.00,,,0.00,Weather View 32 v70,2013-03-26 22:15:00,
2013-03-26 18:20:00,46.0,36.8,29.91,NNE,13,5.0,7.0,70,0.00,,,0.00,Weather View 32 v70,2013-03-26 22:20:00,
2013-03-26 18:25:00,46.4,37.5,29.91,WNW,301,4.0,8.0,71,0.00,,,0.00,Weather View 32 v70,2013-03-26 22:25:00,
2013-03-26 18:30:00,46.5,37.2,29.91,NNE,16,3.0,9.0,70,0.00,,,0.00,Weather View 32 v70,2013-03-26 22:30:00,
2013-03-26 18:35:00,46.2,37.3,29.91,NW,310,4.0,9.0,71,0.00,,,0.00,Weather View 32 v70,2013-03-26 22:35:00,
2013-03-26 18:40:00,46.0,37.1,29.91,NNW,331,2.0,9.0,71,0.00,,,0.00,Weather View 32 v70,2013-03-26 22:40:00,
2013-03-26 18:45:00,45.6,36.7,29.91,NW,313,2.0,9.0,71,0.00,,,0.00,Weather View 32 v70,2013-03-26 22:45:00,
2013-03-26 18:50:00,45.5,36.6,29.91,NE,40,1.0,9.0,71,0.00,,,0.00,Weather View 32 v70,2013-03-26 22:50:00,
2013-03-26 18:55:00,45.1,35.9,29.92,North,358,1.0,9.0,70,0.00,,,0.00,Weather View 32 v70,2013-03-26 22:55:00,
2013-03-26 19:00:00,45.1,35.9,29.92,NW,318,4.0,9.0,70,0.00,,,0.00,Weather View 32 v70,2013-03-26 23:00:00,
2013-03-26 19:05:00,44.9,35.7,29.92,NW,313,2.0,9.0,70,0.00,,,0.00,Weather View 32 v70,2013-03-26 23:05:00,
2013-03-26 19:10:00,44.4,35.2,29.93,West,264,2.0,9.0,70,0.00,,,0.00,Weather View 32 v70,2013-03-26 23:10:00,
2013-03-26 19:15:00,44.0,35.2,29.92,WNW,297,2.0,9.0,71,0.00,,,0.00,Weather View 32 v70,2013-03-26 23:15:00,
2013-03-26 19:20:00,43.5,34.7,29.93,WSW,250,1.0,9.0,71,0.00,,,0.00,Weather View 32 v70,2013-03-26 23:20:00,
2013-03-26 19:25:00,42.9,34.1,29.93,SW,234,1.0,9.0,71,0.00,,,0.00,Weather View 32 v70,2013-03-26 23:25:00,
2013-03-26 19:30:00,42.4,33.7,29.93,WSW,244,1.0,9.0,71,0.00,,,0.00,Weather View 32 v70,2013-03-26 23:30:00,
2013-03-26 19:35:00,41.3,32.2,29.93,NNW,347,1.0,8.0,70,0.00,,,0.00,Weather View 32 v70,2013-03-26 23:35:00,
2013-03-26 19:40:00,39.7,31.1,29.94,SE,137,0.0,8.0,71,0.00,,,0.00,Weather View 32 v70,2013-03-26 23:40:00,
2013-03-26 19:45:00,39.3,30.7,29.94,SE,129,0.0,4.0,71,0.00,,,0.00,Weather View 32 v70,2013-03-26 23:45:00,
2013-03-26 19:50:00,38.8,30.2,29.95,ENE,60,0.0,4.0,71,0.00,,,0.00,Weather View 32 v70,2013-03-26 23:50:00,
2013-03-26 19:55:00,37.9,29.3,29.94,SE,143,0.0,4.0,71,0.00,,,0.00,Weather View 32 v70,2013-03-26 23:55:00,
2013-03-26 20:00:00,37.5,28.9,29.95,NNE,30,0.0,4.0,71,0.00,,,0.00,Weather View 32 v70,2013-03-27 00:00:00,
2013-03-26 20:05:00,37.2,28.7,29.96,East,96,0.0,3.0,71,0.00,,,0.00,Weather View 32 v70,2013-03-27 00:05:00,
2013-03-26 20:10:00,37.2,28.7,29.95,ENE,72,0.0,3.0,71,0.00,,,0.00,Weather View 32 v70,2013-03-27 00:10:00,
2013-03-26 20:15:00,37.2,28.7,29.95,NNE,19,0.0,3.0,71,0.00,,,0.00,Weather View 32 v70,2013-03-27 00:15:00,
2013-03-26 20:20:00,37.2,28.7,29.95,WSW,250,1.0,3.0,71,0.00,,,0.00,Weather View 32 v70,2013-03-27 00:20:00,
2013-03-26 20:25:00,37.2,28.7,29.95,WSW,256,3.0,3.0,71,0.00,,,0.00,Weather View 32 v70,2013-03-27 00:25:00,
2013-03-26 20:30:00,37.2,28.7,29.96,WSW,256,1.0,3.0,71,0.00,,,0.00,Weather View 32 v70,2013-03-27 00:30:00,
2013-03-26 20:35:00,37.0,28.5,29.96,NNW,331,1.0,3.0,71,0.00,,,0.00,Weather View 32 v70,2013-03-27 00:35:00,
2013-03-26 20:40:00,36.6,28.1,29.96,WNW,282,1.0,3.0,71,0.00,,,0.00,Weather View 32 v70,2013-03-27 00:40:00,
2013-03-26 20:45:00,35.4,26.2,29.96,NNW,345,1.0,3.0,69,0.00,,,0.00,Weather View 32 v70,2013-03-27 00:45:00,
2013-03-26 20:50:00,35.0,25.9,29.96,SSW,212,0.0,3.0,69,0.00,,,0.00,Weather View 32 v70,2013-03-27 00:50:00,
2013-03-26 20:55:00,34.3,25.2,29.97,West,265,0.0,3.0,69,0.00,,,0.00,Weather View 32 v70,2013-03-27 00:55:00,
2013-03-26 21:00:00,34.1,25.3,29.97,NNW,329,0.0,3.0,70,0.00,,,0.00,Weather View 32 v70,2013-03-27 01:00:00,
2013-03-26 21:05:00,33.2,25.1,29.97,South,171,0.0,3.0,72,0.00,,,0.00,Weather View 32 v70,2013-03-27 01:05:00,
2013-03-26 21:10:00,32.5,24.8,29.98,NNE,22,0.0,3.0,73,0.00,,,0.00,Weather View 32 v70,2013-03-27 01:10:00,
2013-03-26 21:15:00,32.3,24.9,29.98,WSW,255,0.0,3.0,74,0.00,,,0.00,Weather View 32 v70,2013-03-27 01:15:00,
2013-03-26 21:20:00,31.7,25.0,29.98,North,353,0.0,3.0,76,0.00,,,0.00,Weather View 32 v70,2013-03-27 01:20:00,
2013-03-26 21:25:00,31.3,24.9,29.98,North,355,0.0,3.0,77,0.00,,,0.00,Weather View 32 v70,2013-03-27 01:25:00,
2013-03-26 21:30:00,31.5,25.1,29.99,NNW,328,0.0,2.0,77,0.00,,,0.00,Weather View 32 v70,2013-03-27 01:30:00,
2013-03-26 21:35:00,31.1,24.7,29.99,West,265,0.0,2.0,77,0.00,,,0.00,Weather View 32 v70,2013-03-27 01:35:00,
2013-03-26 21:40:00,31.1,25.0,29.99,West,277,0.0,2.0,78,0.00,,,0.00,Weather View 32 v70,2013-03-27 01:40:00,
2013-03-26 21:45:00,31.0,25.3,29.99,WNW,293,0.0,1.0,79,0.00,,,0.00,Weather View 32 v70,2013-03-27 01:45:00,
2013-03-26 21:50:00,30.6,24.9,30.00,NNW,327,0.0,1.0,79,0.00,,,0.00,Weather View 32 v70,2013-03-27 01:50:00,
2013-03-26 21:55:00,30.2,25.1,30.00,NW,311,0.0,1.0,81,0.00,,,0.00,Weather View 32 v70,2013-03-27 01:55:00,
2013-03-26 22:00:00,30.1,25.0,30.00,NW,323,0.0,1.0,81,0.00,,,0.00,Weather View 32 v70,2013-03-27 02:00:00,
2013-03-26 22:10:00,29.9,25.1,30.00,West,259,1.0,1.0,82,0.00,,,0.00,Weather View 32 v70,2013-03-27 02:10:00,
2013-03-26 22:15:00,29.3,24.5,30.01,North,354,1.0,1.0,82,0.00,,,0.00,Weather View 32 v70,2013-03-27 02:15:00,
2013-03-26 22:20:00,29.5,24.7,30.01,West,263,0.0,1.0,82,0.00,,,0.00,Weather View 32 v70,2013-03-27 02:20:00,
2013-03-26 22:30:00,29.2,24.1,30.01,WSW,257,0.0,1.0,81,0.00,,,0.00,Weather View 32 v70,2013-03-27 02:30:00,
2013-03-26 22:35:00,29.0,23.9,30.01,West,279,0.0,1.0,81,0.00,,,0.00,Weather View 32 v70,2013-03-27 02:35:00,
2013-03-26 22:40:00,28.6,23.8,30.02,WNW,295,0.0,1.0,82,0.00,,,0.00,Weather View 32 v70,2013-03-27 02:40:00,
2013-03-26 22:45:00,28.8,24.0,30.01,NNW,339,0.0,1.0,82,0.00,,,0.00,Weather View 32 v70,2013-03-27 02:45:00,
2013-03-26 22:50:00,27.9,23.1,30.01,NW,304,0.0,1.0,82,0.00,,,0.00,Weather View 32 v70,2013-03-27 02:50:00,
2013-03-26 22:55:00,28.3,23.8,30.02,NW,323,0.0,1.0,83,0.00,,,0.00,Weather View 32 v70,2013-03-27 02:55:00,
2013-03-26 23:00:00,28.1,23.9,30.02,West,272,0.0,1.0,84,0.00,,,0.00,Weather View 32 v70,2013-03-27 03:00:00,
2013-03-26 23:05:00,28.1,23.9,30.03,West,275,0.0,1.0,84,0.00,,,0.00,Weather View 32 v70,2013-03-27 03:05:00,
2013-03-26 23:10:00,28.3,24.1,30.01,WNW,286,0.0,1.0,84,0.00,,,0.00,Weather View 32 v70,2013-03-27 03:10:00,
2013-03-26 23:15:00,27.9,23.4,30.02,NNE,21,0.0,1.0,83,0.00,,,0.00,Weather View 32 v70,2013-03-27 03:15:00,
2013-03-26 23:20:00,28.1,23.6,30.03,NW,316,0.0,1.0,83,0.00,,,0.00,Weather View 32 v70,2013-03-27 03:20:00,
2013-03-26 23:25:00,28.6,24.1,30.03,SW,229,1.0,1.0,83,0.00,,,0.00,Weather View 32 v70,2013-03-27 03:25:00,
2013-03-26 23:30:00,29.2,24.4,30.03,North,360,1.0,2.0,82,0.00,,,0.00,Weather View 32 v70,2013-03-27 03:30:00,
2013-03-26 23:35:00,29.2,24.4,30.03,NNW,334,1.0,2.0,82,0.00,,,0.00,Weather View 32 v70,2013-03-27 03:35:00,
2013-03-26 23:40:00,29.0,23.9,30.03,NNW,339,1.0,2.0,81,0.00,,,0.00,Weather View 32 v70,2013-03-27 03:40:00,
2013-03-26 23:45:00,28.8,23.7,30.03,NNW,348,1.0,2.0,81,0.00,,,0.00,Weather View 32 v70,2013-03-27 03:45:00,
2013-03-26 23:50:00,29.0,23.9,30.03,SSW,208,0.0,2.0,81,0.00,,,0.00,Weather View 32 v70,2013-03-27 03:50:00,
2013-03-26 23:55:00,29.0,23.3,30.02,NNW,335,1.0,2.0,79,0.00,,,0.00,Weather View 32 v70,2013-03-27 03:55:00,